Time,TemperatureF,DewpointF,PressureIn,WindDirection,WindDirectionDegrees,WindSpeedMPH,WindSpeedGustMPH,Humidity,HourlyPrecipIn,Conditions,Clouds,dailyrainin,SolarRadiationWatts/m^2,SoftwareType,DateUTC
2013-01-14 00:31:00,47.6,47.0,30.05,SSW,210,0.0,1.0,99,0.00,,,0.01,0,weatherlink.com 1.10,2013-01-14 05:31:00,
2013-01-14 00:46:00,47.8,48.0,30.06,SSW,199,0.0,3.0,99,0.00,,,0.01,0,weatherlink.com 1.10,2013-01-14 05:46:00,
2013-01-14 01:01:00,47.9,48.0,30.06,West,262,0.0,2.0,99,0.00,,,0.01,0,weatherlink.com 1.10,2013-01-14 06:01:00,
2013-01-14 01:16:00,48.2,48.0,30.06,SW,225,0.0,3.0,99,0.00,,,0.01,0,weatherlink.com 1.10,2013-01-14 06:16:00,
2013-01-14 01:31:00,48.3,48.0,30.06,WSW,244,0.0,6.0,99,0.00,,,0.01,0,weatherlink.com 1.10,2013-01-14 06:31:00,
2013-01-14 01:46:00,48.6,48.0,30.06,West,281,3.0,6.0,99,0.00,,,0.01,0,weatherlink.com 1.10,2013-01-14 06:46:00,
2013-01-14 02:01:00,48.9,49.0,30.07,WSW,238,3.0,7.0,99,0.00,,,0.01,0,weatherlink.com 1.10,2013-01-14 07:01:00,
2013-01-14 02:16:00,49.0,49.0,30.07,SSW,205,3.0,9.0,99,0.00,,,0.01,0,weatherlink.com 1.10,2013-01-14 07:16:00,
2013-01-14 02:31:00,48.9,49.0,30.06,SSE,156,2.0,6.0,99,0.00,,,0.01,0,weatherlink.com 1.10,2013-01-14 07:31:00,
2013-01-14 02:46:00,48.7,49.0,30.06,West,281,1.0,5.0,99,0.00,,,0.01,0,weatherlink.com 1.10,2013-01-14 07:46:00,
2013-01-14 03:01:00,48.6,48.0,30.07,WSW,255,3.0,6.0,99,0.00,,,0.01,0,weatherlink.com 1.10,2013-01-14 08:01:00,
2013-01-14 03:16:00,48.5,48.0,30.05,West,266,0.0,3.0,99,0.00,,,0.01,0,weatherlink.com 1.10,2013-01-14 08:16:00,
2013-01-14 03:31:00,48.4,48.0,30.05,WSW,254,0.0,3.0,99,0.00,,,0.01,0,weatherlink.com 1.10,2013-01-14 08:31:00,
2013-01-14 03:46:00,48.4,48.0,30.04,SW,225,0.0,2.0,99,0.00,,,0.01,0,weatherlink.com 1.10,2013-01-14 08:46:00,
2013-01-14 04:01:00,48.3,48.0,30.03,SW,227,0.0,1.0,99,0.00,,,0.01,0,weatherlink.com 1.10,2013-01-14 09:01:00,
2013-01-14 04:16:00,48.3,48.0,30.04,West,265,0.0,4.0,99,0.00,,,0.01,0,weatherlink.com 1.10,2013-01-14 09:16:00,
2013-01-14 04:31:00,48.4,48.0,30.04,West,271,1.0,4.0,99,0.00,,,0.01,0,weatherlink.com 1.10,2013-01-14 09:31:00,
2013-01-14 04:46:00,48.5,48.0,30.04,West,264,0.0,3.0,99,0.00,,,0.01,0,weatherlink.com 1.10,2013-01-14 09:46:00,
2013-01-14 05:01:00,48.4,48.0,30.04,SW,234,1.0,3.0,99,0.00,,,0.01,0,weatherlink.com 1.10,2013-01-14 10:01:00,
2013-01-14 05:16:00,48.4,48.0,30.05,SW,234,0.0,2.0,99,0.00,,,0.01,0,weatherlink.com 1.10,2013-01-14 10:16:00,
2013-01-14 05:31:00,48.4,48.0,30.04,SW,235,0.0,3.0,99,0.00,,,0.01,0,weatherlink.com 1.10,2013-01-14 10:31:00,
2013-01-14 05:46:00,48.5,48.0,30.04,SW,234,0.0,3.0,99,0.01,,,0.02,0,weatherlink.com 1.10,2013-01-14 10:46:00,
2013-01-14 06:01:00,48.5,48.0,30.03,ESE,110,0.0,1.0,99,0.01,,,0.02,0,weatherlink.com 1.10,2013-01-14 11:01:00,
2013-01-14 06:16:00,48.6,48.0,30.04,SW,215,0.0,1.0,99,0.01,,,0.02,0,weatherlink.com 1.10,2013-01-14 11:16:00,
2013-01-14 06:31:00,49.0,49.0,30.03,SSW,194,0.0,3.0,99,0.01,,,0.02,0,weatherlink.com 1.10,2013-01-14 11:31:00,
2013-01-14 06:46:00,49.2,49.0,30.02,East,88,0.0,3.0,99,0.00,,,0.02,0,weatherlink.com 1.10,2013-01-14 11:46:00,
2013-01-14 07:01:00,49.5,49.0,30.00,SSE,167,1.0,4.0,99,0.00,,,0.02,0,weatherlink.com 1.10,2013-01-14 12:01:00,
2013-01-14 07:16:00,49.4,49.0,29.99,East,86,5.0,5.0,99,0.00,,,0.02,0,weatherlink.com 1.10,2013-01-14 12:16:00,
2013-01-14 07:31:00,49.4,49.0,29.97,East,86,2.0,7.0,99,0.00,,,0.02,0,weatherlink.com 1.10,2013-01-14 12:31:00,
2013-01-14 07:46:00,49.2,49.0,30.01,WNW,283,4.0,8.0,99,0.00,,,0.02,0,weatherlink.com 1.10,2013-01-14 12:46:00,
2013-01-14 08:01:00,49.1,49.0,30.05,West,270,5.0,6.0,99,0.00,,,0.02,0,weatherlink.com 1.10,2013-01-14 13:01:00,
2013-01-14 08:16:00,49.4,49.0,30.08,West,266,3.0,4.0,99,0.00,,,0.02,0,weatherlink.com 1.10,2013-01-14 13:16:00,
2013-01-14 08:31:00,49.9,50.0,30.08,WSW,247,2.0,5.0,99,0.00,,,0.02,5,weatherlink.com 1.10,2013-01-14 13:31:00,
2013-01-14 08:46:00,50.0,50.0,30.08,West,265,0.0,5.0,99,0.00,,,0.02,9,weatherlink.com 1.10,2013-01-14 13:46:00,
2013-01-14 09:01:00,50.0,50.0,30.08,SW,218,3.0,7.0,99,0.00,,,0.02,12,weatherlink.com 1.10,2013-01-14 14:01:00,
2013-01-14 09:17:00,50.6,50.0,30.06,West,267,0.0,3.0,99,0.00,,,0.02,16,weatherlink.com 1.10,2013-01-14 14:17:00,
2013-01-14 09:32:00,51.2,51.0,30.06,WNW,285,2.0,3.0,99,0.00,,,0.02,28,weatherlink.com 1.10,2013-01-14 14:32:00,
2013-01-14 09:47:00,52.2,52.0,30.06,West,267,4.0,6.0,99,0.00,,,0.02,26,weatherlink.com 1.10,2013-01-14 14:47:00,
2013-01-14 10:02:00,52.8,53.0,30.07,SE,144,4.0,7.0,99,0.00,,,0.02,46,weatherlink.com 1.10,2013-01-14 15:02:00,
2013-01-14 10:17:00,53.1,53.0,30.07,West,268,2.0,7.0,99,0.00,,,0.02,47,weatherlink.com 1.10,2013-01-14 15:17:00,
2013-01-14 10:32:00,53.4,53.0,30.08,West,272,4.0,8.0,99,0.00,,,0.00,60,weatherlink.com 1.10,2013-01-14 15:32:00,
2013-01-14 10:48:00,53.6,53.0,30.08,SW,221,1.0,8.0,99,0.00,,,0.00,60,weatherlink.com 1.10,2013-01-14 15:48:00,
2013-01-14 11:02:00,53.8,54.0,30.07,NW,304,3.0,6.0,99,0.00,,,0.00,54,weatherlink.com 1.10,2013-01-14 16:02:00,
2013-01-14 11:17:00,53.4,53.0,30.07,NW,309,4.0,7.0,99,0.00,,,0.00,65,weatherlink.com 1.10,2013-01-14 16:17:00,
2013-01-14 11:32:00,53.1,53.0,30.07,NW,319,2.0,5.0,99,0.00,,,0.00,81,weatherlink.com 1.10,2013-01-14 16:32:00,
2013-01-14 11:47:00,53.5,53.0,30.06,NE,51,1.0,6.0,99,0.00,,,0.00,93,weatherlink.com 1.10,2013-01-14 16:47:00,
2013-01-14 12:02:00,54.6,54.0,30.06,WSW,252,3.0,4.0,99,0.00,,,0.00,193,weatherlink.com 1.10,2013-01-14 17:02:00,
2013-01-14 12:17:00,54.8,55.0,30.06,West,278,1.0,3.0,99,0.00,,,0.00,158,weatherlink.com 1.10,2013-01-14 17:17:00,
2013-01-14 12:32:00,55.2,55.0,30.07,WNW,296,2.0,8.0,98,0.00,,,0.00,269,weatherlink.com 1.10,2013-01-14 17:32:00,
2013-01-14 12:47:00,56.7,56.0,30.07,West,268,3.0,6.0,96,0.00,,,0.00,209,weatherlink.com 1.10,2013-01-14 17:47:00,
2013-01-14 13:17:00,57.3,53.0,30.09,WNW,286,4.0,6.0,85,0.00,,,0.00,93,weatherlink.com 1.10,2013-01-14 18:17:00,
2013-01-14 13:32:00,57.2,53.0,30.09,WNW,300,0.0,6.0,85,0.00,,,0.00,190,weatherlink.com 1.10,2013-01-14 18:32:00,
2013-01-14 13:47:00,59.1,54.0,30.09,NW,317,2.0,6.0,84,0.00,,,0.00,520,weatherlink.com 1.10,2013-01-14 18:47:00,
2013-01-14 14:03:00,58.7,53.0,30.10,NNE,12,1.0,7.0,80,0.00,,,0.00,62,weatherlink.com 1.10,2013-01-14 19:03:00,
2013-01-14 14:17:00,56.9,50.0,30.11,WNW,301,2.0,6.0,79,0.00,,,0.00,44,weatherlink.com 1.10,2013-01-14 19:17:00,
2013-01-14 14:32:00,55.6,49.0,30.11,NNW,337,2.0,6.0,78,0.00,,,0.00,160,weatherlink.com 1.10,2013-01-14 19:32:00,
2013-01-14 14:47:00,55.4,49.0,30.12,West,279,4.0,5.0,80,0.00,,,0.00,102,weatherlink.com 1.10,2013-01-14 19:47:00,
2013-01-14 15:02:00,55.0,48.0,30.13,NW,311,4.0,5.0,78,0.00,,,0.00,72,weatherlink.com 1.10,2013-01-14 20:02:00,
2013-01-14 15:17:00,53.8,46.0,30.15,NW,308,4.0,5.0,76,0.00,,,0.00,42,weatherlink.com 1.10,2013-01-14 20:17:00,
2013-01-14 15:33:00,52.2,44.0,30.16,NW,314,1.0,4.0,73,0.00,,,0.00,18,weatherlink.com 1.10,2013-01-14 20:33:00,
2013-01-14 15:48:00,51.0,43.0,30.15,WNW,292,2.0,6.0,74,0.00,,,0.00,11,weatherlink.com 1.10,2013-01-14 20:48:00,
2013-01-14 16:03:00,50.0,42.0,30.15,NE,40,1.0,3.0,75,0.00,,,0.00,11,weatherlink.com 1.10,2013-01-14 21:03:00,
2013-01-14 16:18:00,49.1,39.0,30.16,NW,324,0.0,5.0,69,0.00,,,0.00,5,weatherlink.com 1.10,2013-01-14 21:18:00,
2013-01-14 16:33:00,48.3,37.0,30.18,NW,308,4.0,8.0,65,0.00,,,0.00,0,weatherlink.com 1.10,2013-01-14 21:33:00,
2013-01-14 16:48:00,47.8,35.0,30.19,NNW,327,1.0,8.0,61,0.00,,,0.00,0,weatherlink.com 1.10,2013-01-14 21:48:00,
2013-01-14 17:03:00,47.4,34.0,30.20,West,281,0.0,5.0,61,0.00,,,0.00,0,weatherlink.com 1.10,2013-01-14 22:03:00,
2013-01-14 17:18:00,47.0,34.0,30.19,NW,308,0.0,3.0,61,0.00,,,0.00,0,weatherlink.com 1.10,2013-01-14 22:18:00,
2013-01-14 17:33:00,46.5,34.0,30.19,NW,322,0.0,4.0,62,0.00,,,0.00,0,weatherlink.com 1.10,2013-01-14 22:33:00,
2013-01-14 17:48:00,45.9,33.0,30.18,North,360,0.0,4.0,61,0.00,,,0.00,0,weatherlink.com 1.10,2013-01-14 22:48:00,
2013-01-14 18:03:00,45.2,33.0,30.19,NW,317,0.0,2.0,63,0.00,,,0.00,0,weatherlink.com 1.10,2013-01-14 23:03:00,
2013-01-14 18:18:00,44.8,33.0,30.20,WNW,286,0.0,7.0,63,0.00,,,0.00,0,weatherlink.com 1.10,2013-01-14 23:18:00,
2013-01-14 18:33:00,44.5,33.0,30.20,NW,315,0.0,3.0,64,0.00,,,0.00,0,weatherlink.com 1.10,2013-01-14 23:33:00,
2013-01-14 18:48:00,44.2,32.0,30.21,WNW,296,0.0,2.0,63,0.00,,,0.00,0,weatherlink.com 1.10,2013-01-14 23:48:00,
2013-01-14 19:03:00,44.2,33.0,30.21,NW,315,0.0,3.0,66,0.00,,,0.00,0,weatherlink.com 1.10,2013-01-15 00:03:00,
2013-01-14 19:18:00,44.0,34.0,30.21,WNW,302,2.0,2.0,68,0.00,,,0.00,0,weatherlink.com 1.10,2013-01-15 00:18:00,
2013-01-14 19:33:00,43.8,33.0,30.22,WNW,299,0.0,1.0,67,0.00,,,0.00,0,weatherlink.com 1.10,2013-01-15 00:33:00,
2013-01-14 19:48:00,43.7,33.0,30.25,West,274,5.0,6.0,65,0.00,,,0.00,0,weatherlink.com 1.10,2013-01-15 00:48:00,
2013-01-14 20:03:00,43.4,32.0,30.25,WNW,302,0.0,8.0,64,0.00,,,0.00,0,weatherlink.com 1.10,2013-01-15 01:03:00,
2013-01-14 20:18:00,43.0,32.0,30.26,East,84,0.0,6.0,66,0.00,,,0.00,0,weatherlink.com 1.10,2013-01-15 01:18:00,
2013-01-14 20:33:00,42.7,32.0,30.26,West,277,1.0,7.0,66,0.00,,,0.00,0,weatherlink.com 1.10,2013-01-15 01:33:00,
2013-01-14 20:48:00,42.3,32.0,30.27,WNW,294,0.0,6.0,67,0.00,,,0.00,0,weatherlink.com 1.10,2013-01-15 01:48:00,
2013-01-14 21:03:00,42.0,32.0,30.26,NW,305,4.0,4.0,68,0.00,,,0.00,0,weatherlink.com 1.10,2013-01-15 02:03:00,
2013-01-14 21:19:00,41.6,31.0,30.27,WNW,303,4.0,5.0,67,0.00,,,0.00,0,weatherlink.com 1.10,2013-01-15 02:19:00,
2013-01-14 21:34:00,41.2,32.0,30.27,NW,306,0.0,2.0,69,0.00,,,0.00,0,weatherlink.com 1.10,2013-01-15 02:34:00,
2013-01-14 21:49:00,41.0,32.0,30.29,NW,323,0.0,5.0,69,0.00,,,0.00,0,weatherlink.com 1.10,2013-01-15 02:49:00,
2013-01-14 22:04:00,40.5,32.0,30.25,NNW,338,0.0,4.0,73,0.00,,,0.00,0,weatherlink.com 1.10,2013-01-15 03:04:00,
2013-01-14 22:19:00,39.5,33.0,30.30,WNW,291,0.0,5.0,77,0.00,,,0.00,0,weatherlink.com 1.10,2013-01-15 03:19:00,
2013-01-14 22:34:00,39.0,33.0,30.30,NW,312,0.0,5.0,80,0.00,,,0.00,0,weatherlink.com 1.10,2013-01-15 03:34:00,
2013-01-14 22:49:00,38.3,34.0,30.29,NW,321,0.0,7.0,83,0.00,,,0.00,0,weatherlink.com 1.10,2013-01-15 03:49:00,
2013-01-14 23:04:00,37.5,33.0,30.29,WNW,296,0.0,5.0,84,0.00,,,0.00,0,weatherlink.com 1.10,2013-01-15 04:04:00,
2013-01-14 23:19:00,37.1,33.0,30.29,WNW,284,0.0,7.0,84,0.00,,,0.00,0,weatherlink.com 1.10,2013-01-15 04:19:00,
2013-01-14 23:34:00,36.9,33.0,30.29,NW,325,0.0,3.0,86,0.00,,,0.00,0,weatherlink.com 1.10,2013-01-15 04:34:00,
2013-01-14 23:49:00,36.8,33.0,30.30,NW,309,0.0,1.0,85,0.00,,,0.00,0,weatherlink.com 1.10,2013-01-15 04:49:00,